This is the latest recevied weather packets stored in our database for station/object F4GQK-13. If no packets are shown the sender has not sent any weather packets the latest 10 day(s).
| Time | Temp. | Humidity | Pressure | Rain* | Wind** | Luminosity | Snow |
|---|---|---|---|---|---|---|---|
| 1777815305 | 20.56° C | 78% | 1012.8 hPa | 0 mm | - | 801 W/m² | - |
| 1777815005 | 20.56° C | 78% | 1012.7 hPa | 0 mm | - | 770 W/m² | - |
| 1777814706 | 20° C | 79% | 1012.8 hPa | 0 mm | - | 768 W/m² | - |
| 1777814405 | 19.44° C | 81% | 1012.9 hPa | 0 mm | - | 454 W/m² | - |
| 1777814105 | 18.89° C | 82% | 1012.9 hPa | 0 mm | - | 857 W/m² | - |
| 1777813805 | 18.89° C | 82% | 1013.1 hPa | 0 mm | - | 395 W/m² | - |
| 1777813505 | 18.33° C | 84% | 1013.1 hPa | 0 mm | - | 366 W/m² | - |
| 1777813205 | 17.78° C | 85% | 1013 hPa | 0 mm | - | 410 W/m² | - |
| 1777812905 | 17.78° C | 85% | 1012.9 hPa | 0 mm | - | 287 W/m² | - |
| 1777812605 | 17.78° C | 85% | 1013.1 hPa | 0 mm | - | 226 W/m² | - |
| 1777812304 | 16.67° C | 87% | 1013.2 hPa | 0 mm | - | 513 W/m² | - |
| 1777812005 | 16.67° C | 88% | 1013.2 hPa | 0 mm | - | 205 W/m² | - |
| 1777811705 | 16.67° C | 88% | 1013.3 hPa | 0 mm | - | 243 W/m² | - |
| 1777811405 | 16.11° C | 88% | 1013.4 hPa | 0 mm | - | 279 W/m² | - |
| 1777811105 | 16.67° C | 88% | 1013.2 hPa | 0 mm | - | 190 W/m² | - |
| 1777810803 | 16.67° C | 88% | 1013.4 hPa | 0 mm | - | 77 W/m² | - |
| 1777810505 | 17.22° C | 87% | 1013.2 hPa | 0 mm | - | 100 W/m² | - |
| 1777810205 | 16.67° C | 87% | 1013.4 hPa | 0 mm | - | 192 W/m² | - |
| 1777809903 | 16.67° C | 86% | 1013.2 hPa | 0 mm | - | 261 W/m² | - |
| 1777809605 | 17.22° C | 87% | 1013.4 hPa | 0 mm | - | 334 W/m² | - |
| 1777809305 | 16.67° C | 87% | 1013.5 hPa | 0 mm | - | 326 W/m² | - |
| 1777809005 | 16.67° C | 88% | 1013.4 hPa | 0 mm | - | 414 W/m² | - |
| 1777808703 | 16.67° C | 88% | 1013.4 hPa | 0 mm | - | 319 W/m² | - |
| 1777808405 | 16.11° C | 88% | 1013.4 hPa | 0 mm | - | 214 W/m² | - |
| 1777808105 | 16.67° C | 88% | 1013.6 hPa | 0 mm | - | 239 W/m² | - |
* Rain latest hour (hover to see other rain measurements)
** Current wind speed in m/s (hover to see current wind gust speed)